Tracking 19170 objects as of 22-May-2018
HD Live streaming from Space Station
objects crossing your sky now

GLOBALSTAR M044

Track GLOBALSTAR M044 now!
10-day predictions
GLOBALSTAR M044 is classified as:


NORAD ID: 25678
Int'l Code: 1999-019C
Perigee: 1,727.1 km
Apogee: 1,737.4 km
Inclination: 52.0 °
Period: 121.0 minutes
Semi major axis: 8103 km
RCS: 2.4818 m2 (large)
Launch date: April 15, 1999
Source: Globalstar (GLOB)
Launch site: TYURATAM MISSILE AND SPACE COMPLEX (TTMTR)
aabbcc
Your satellite tracking list
Your tracking list is empty




NASA's NSSDC Master Catalog

Two Line Element Set (TLE):
1 25678U 99019C   18141.18938998 -.00000094  00000-0 -14570-3 0  9991
2 25678  51.9989  46.2850 0006404  93.1583  63.6294 11.90184016863614
Source of the keplerian elements: AFSPC